Weather Roundup
Issued by NWS

Home | Current Version | Previous Version | Text Only | Print | Product List | Glossary On
Versions: 1 2 3 4 5 6 7 8 9 10 11 12 13 14 15 16 17 18 19 20 21 22 23 24 25 26 27 28 29 30 31 32 33 34 35 36 37 38 39 40 41 42 43 44 45 46 47 48 49 50
000
NZUS93 KARX 311410
HRRWXR

CURRENT HOURLY OBSERVATIONS ACROSS
MUCH OF THE UPPER MISSISSIPPI VALLEY
NATIONAL WEATHER SERVICE LA CROSSE WI
900 AM CDT THU JUL 31 2014


...SOUTHEAST MINNESOTA...


CITY           SKY/WX    TMP DP  RH WIND       PRES   REMARKS
ROCHESTER      SUNNY     67  58  72 W6        30.09R
ROCHESTER/MAYO FAIR      65  55  70 W6        30.07S
WINONA         SUNNY     70  61  73 NW5       30.04S
AUSTIN         PTSUNNY   66  57  72 NW3       30.08R
ALBERT LEA     SUNNY     68  57  68 CALM      30.08S
DODGE CENTER   SUNNY     68  57  68 W6        30.07S
PRESTON        SUNNY     65  62  88 NW7       30.08R
OWATONNA       SUNNY     64  57  77 W5        30.08R
FARIBAULT      SUNNY     72  55  56 W3        30.07R
$$

...ELSEWHERE IN MINNESOTA...


CITY           SKY/WX    TMP DP  RH WIND       PRES   REMARKS
MINNEAPOLIS    MOSUNNY   70  57  63 W3        30.05S
INTNL FALLS    SUNNY     65  59  81 NW3       30.00S
DULUTH         SUNNY     68  59  73 VRB3      30.00S
RED WING       SUNNY     66  61  82 W3        30.04R
REDWOOD FALLS  MOSUNNY   65  59  81 NE5       30.07S
MANKATO        PTSUNNY   64  55  72 CALM      30.08S
WORTHINGTON    SUNNY     68  57  68 SW3       30.11S
FAIRMONT       MOSUNNY   70  55  60 W7        30.09S
$$

...SOUTHWEST WISCONSIN...


CITY           SKY/WX    TMP DP  RH WIND       PRES   REMARKS
LA CROSSE      SUNNY     68  60  75 S5        30.03S
PRAIRIE DU CHI SUNNY     67  57  68 CALM      30.06R
BOSCOBEL       SUNNY     68  60  75 S6        30.05S
LONE ROCK      SUNNY     70  61  73 W5        30.04S
PLATTEVILLE    SUNNY     67  61  83 W6        30.07S
FORT MC COY    SUNNY     65  61  87 W3        30.04S
CAMP DOUGLAS   SUNNY     68  64  88 W6        30.03R
VIROQUA        FAIR      66  60  81 W3        30.06R
WIS DELLS      SUNNY     68  57  66 W6        30.03S
$$

...ELSEWHERE IN WISCONSIN...


CITY           SKY/WX    TMP DP  RH WIND       PRES   REMARKS
MILWAUKEE      SUNNY     70  57  63 W7        30.01S
MADISON        SUNNY     71  60  68 VRB5      30.03R
GREEN BAY      SUNNY     66  62  87 CALM      29.99R
EAU CLAIRE     SUNNY     66  61  84 SW7       30.02R
BLACK RVR FLS  FAIR      64  64 100 SW3       30.02S
MEDFORD        SUNNY     63  60  91 W5        30.01S
WAUSAU         MOSUNNY   65  60  84 W6        29.99S
WIS RAPIDS     SUNNY     65  61  87 W5        30.02S
MARSHFIELD     SUNNY     66  61  84 W9        30.01S
RICE LAKE      SUNNY     65  60  84 CALM      30.03S
$$

...NORTHEAST IOWA...


CITY           SKY/WX    TMP DP  RH WIND       PRES   REMARKS
WATERLOO       SUNNY     68  59  73 W6        30.08S
DUBUQUE        SUNNY     67  63  87 SW5       30.08R
DECORAH        SUNNY     64  59  82 CALM      30.07R
MASON CITY     PTSUNNY   70  58  65 W6        30.10S
CHARLES CITY   SUNNY     66  59  77 W5        30.09S
OELWEIN        SUNNY     66  61  82 NW5       30.09S
$$

...ELSEWHERE IN IOWA...


CITY           SKY/WX    TMP DP  RH WIND       PRES   REMARKS
DES MOINES     MOSUNNY   68  60  75 CALM      30.10S
IOWA CITY      SUNNY     70  62  76 CALM      30.10R
FORT DODGE     PTSUNNY   64  57  77 CALM      30.12R
MARSHALLTOWN   SUNNY     67  61  81 NW3       30.10R
CEDAR RAPIDS   SUNNY     67  61  81 NW6       30.09R
$$

...NORTHERN ILLINOIS...


CITY           SKY/WX    TMP DP  RH WIND       PRES   REMARKS
CHICAGO-OHARE  MOSUNNY   71  54  54 W9        30.03S
DUPAGE         SUNNY     70  58  65 SW12      30.04S
CHICAGO-MIDWAY MOSUNNY   73  56  54 SW13      30.04S
MOLINE         SUNNY     69  61  75 W6        30.08R
ROCKFORD       SUNNY     70  60  70 CALM      30.06S
STERLING       SUNNY     70  63  78 NW7       30.07S
PEORIA         SUNNY     72  61  68 CALM      30.09R
$$

NOTE: "FAIR" INDICATES FEW OR NO CLOUDS BELOW 12,000 FEET WITH NO
SIGNIFICANT WEATHER AND/OR OBSTRUCTIONS TO VISIBILITY. WIND
SPEEDS ARE IN MILES-PER-HOUR.



USA.gov is the U.S. government's official web portal to all federal, state and local government web resources and services.